When you browse on this site, cookies collect data to enhance your experience and personalize the content and advertising you see.
Visit our Privacy Policy to learn more. By continuing to use the site, you agree to this use of cookies and data.
  • In Romania
  • List of Countries
  • For 7 days
  • Water Temperature
  • Weather Map
  • Weather Widgets
  • user-avatar
    Login

    Hourly Weather Aberdeen

    Today, 30 May, Saturday

    Time Temperature Precipitation Wind Pressure Humidity
    00:00 +13°C° 0 mm 2 mps 761 mmHg 92%
    01:00 +13°C° 0 mm 2 mps 761 mmHg 92%
    02:00 +13°C° 0 mm 2 mps 761 mmHg 93%
    03:00 +12°C° 0 mm 2 mps 761 mmHg 93%
    04:00 +13°C° 0 mm 2 mps 761 mmHg 91%
    05:00 +13°C° 0 mm 2 mps 761 mmHg 89%
    06:00 +13°C° 0 mm 3 mps 761 mmHg 87%
    07:00 +14°C° 0 mm 3 mps 761 mmHg 82%
    08:00 +14°C° 0 mm 4 mps 761 mmHg 77%
    09:00 +15°C° 0 mm 4 mps 761 mmHg 73%
    10:00 +15°C° 0 mm 5 mps 761 mmHg 72%
    11:00 +16°C° 0 mm 5 mps 761 mmHg 71%
    12:00 +16°C° 0 mm 6 mps 761 mmHg 70%
    13:00 +16°C° 0 mm 6 mps 761 mmHg 69%
    14:00 +15°C° 0 mm 6 mps 761 mmHg 68%
    15:00 +15°C° 0 mm 6 mps 761 mmHg 67%
    16:00 +14°C° 0 mm 5 mps 761 mmHg 69%
    17:00 +13°C° 0 mm 5 mps 761 mmHg 71%
    18:00 +13°C° 0 mm 4 mps 761 mmHg 73%
    19:00 +11°C° 0 mm 4 mps 761 mmHg 80%
    20:00 +10°C° 0 mm 3 mps 762 mmHg 86%
    21:00 +8°C° 0 mm 3 mps 762 mmHg 93%
    22:00 +8°C° 0 mm 3 mps 762 mmHg 94%
    23:00 +8°C° 0 mm 2 mps 762 mmHg 95%

    Tomorrow, 31 May, Sunday

    Time Temperature Precipitation Wind Pressure Humidity
    00:00 +8°C° 0 mm 2 mps 762 mmHg 96%
    01:00 +7°C° 0 mm 2 mps 762 mmHg 96%
    02:00 +7°C° 0 mm 2 mps 762 mmHg 96%
    03:00 +7°C° 0 mm 2 mps 762 mmHg 96%
    04:00 +8°C° 0 mm 2 mps 762 mmHg 95%
    05:00 +9°C° 0 mm 2 mps 763 mmHg 93%
    06:00 +10°C° 0 mm 2 mps 763 mmHg 91%
    07:00 +13°C° 0 mm 2 mps 763 mmHg 85%
    08:00 +13°C° 0 mm 3 mps 763 mmHg 80%
    09:00 +14°C° 0 mm 3 mps 763 mmHg 74%
    10:00 +16°C° 0 mm 3 mps 763 mmHg 70%
    11:00 +16°C° 0 mm 3 mps 763 mmHg 65%
    12:00 +17°C° 0 mm 4 mps 763 mmHg 61%
    13:00 +17°C° 0 mm 4 mps 762 mmHg 62%
    14:00 +17°C° 0 mm 4 mps 762 mmHg 64%
    15:00 +17°C° 0 mm 4 mps 762 mmHg 65%
    16:00 +15°C° 0 mm 4 mps 762 mmHg 68%
    17:00 +16°C° 0 mm 3 mps 762 mmHg 71%
    18:00 +14°C° 0 mm 3 mps 762 mmHg 73%
    19:00 +13°C° 0 mm 3 mps 762 mmHg 79%
    20:00 +12°C° 0 mm 2 mps 762 mmHg 85%
    21:00 +9°C° 0 mm 2 mps 763 mmHg 91%
    22:00 +10°C° 0 mm 1 mps 763 mmHg 91%
    23:00 +9°C° 0 mm 1 mps 763 mmHg 91%

    Day after tomorrow, 1 June, Monday

    Time Temperature Precipitation Wind Pressure Humidity
    00:00 +9°C° 0 mm 1 mps 763 mmHg 91%
    01:00 +9°C° 0 mm 1 mps 763 mmHg 90%
    02:00 +9°C° 0 mm 1 mps 763 mmHg 90%
    03:00 +8°C° 0 mm 1 mps 763 mmHg 90%
    04:00 +10°C° 0 mm 1 mps 763 mmHg 88%
    05:00 +11°C° 0 mm 1 mps 763 mmHg 86%
    06:00 +12°C° 0 mm 1 mps 763 mmHg 84%
    07:00 +14°C° 0 mm 1 mps 763 mmHg 79%
    08:00 +15°C° 0 mm 1 mps 763 mmHg 74%
    09:00 +16°C° 0 mm 2 mps 763 mmHg 69%
    10:00 +17°C° 0 mm 2 mps 763 mmHg 67%
    11:00 +18°C° 0 mm 3 mps 763 mmHg 65%
    12:00 +19°C° 0 mm 4 mps 763 mmHg 63%
    13:00 +18°C° 0 mm 4 mps 763 mmHg 64%
    14:00 +18°C° 0 mm 4 mps 763 mmHg 65%
    15:00 +18°C° 0 mm 4 mps 762 mmHg 66%
    16:00 +18°C° 0 mm 4 mps 762 mmHg 69%
    17:00 +17°C° 0 mm 4 mps 762 mmHg 73%
    18:00 +16°C° 0 mm 3 mps 762 mmHg 76%
    19:00 +14°C° 0 mm 3 mps 762 mmHg 81%
    20:00 +13°C° 0 mm 2 mps 762 mmHg 85%
    21:00 +12°C° 0 mm 2 mps 762 mmHg 90%
    22:00 +11°C° 0 mm 1 mps 761 mmHg 90%
    23:00 +11°C° 0 mm 1 mps 761 mmHg 90%

    2 June, Tuesday

    Time Temperature Precipitation Wind Pressure Humidity
    00:00 +10°C° 0 mm 1 mps 761 mmHg 90%
    01:00 +10°C° 0 mm 1 mps 760 mmHg 89%
    02:00 +9°C° 0 mm 0 mps 760 mmHg 89%
    03:00 +9°C° 0 mm 0 mps 760 mmHg 89%
    04:00 +10°C° 0 mm 0 mps 760 mmHg 87%
    05:00 +12°C° 0 mm 1 mps 759 mmHg 86%
    06:00 +13°C° 0 mm 1 mps 759 mmHg 84%
    07:00 +14°C° 0 mm 1 mps 759 mmHg 81%
    08:00 +16°C° 0 mm 1 mps 758 mmHg 77%
    09:00 +18°C° 0 mm 1 mps 758 mmHg 74%
    10:00 +18°C° 0.1 mm 2 mps 758 mmHg 72%
    11:00 +19°C° 0.1 mm 2 mps 757 mmHg 70%
    12:00 +19°C° 0.1 mm 3 mps 757 mmHg 68%
    13:00 +19°C° 0.6 mm 3 mps 756 mmHg 70%
    14:00 +19°C° 0.6 mm 3 mps 756 mmHg 71%
    15:00 +18°C° 0.6 mm 3 mps 755 mmHg 73%
    16:00 +17°C° 0.6 mm 2 mps 755 mmHg 78%
    17:00 +16°C° 0.6 mm 2 mps 755 mmHg 83%
    18:00 +15°C° 0.6 mm 2 mps 755 mmHg 88%
    19:00 +14°C° 0.6 mm 2 mps 755 mmHg 89%
    20:00 +14°C° 0.6 mm 2 mps 755 mmHg 90%
    21:00 +13°C° 0.6 mm 2 mps 755 mmHg 91%
    22:00 +12°C° 0.6 mm 3 mps 755 mmHg 93%
    23:00 +12°C° 0.6 mm 3 mps 755 mmHg 94%

    3 June, Wednesday

    Time Temperature Precipitation Wind Pressure Humidity
    00:00 +11°C° 0.6 mm 3 mps 755 mmHg 96%
    01:00 +11°C° 0.3 mm 3 mps 756 mmHg 95%
    02:00 +11°C° 0.3 mm 4 mps 756 mmHg 95%
    03:00 +11°C° 0.3 mm 4 mps 756 mmHg 94%
    04:00 +10°C° 0 mm 5 mps 756 mmHg 93%
    05:00 +9°C° 0 mm 6 mps 756 mmHg 91%
    06:00 +9°C° 0 mm 7 mps 757 mmHg 89%
    07:00 +9°C° 0 mm 7 mps 757 mmHg 86%
    08:00 +9°C° 0 mm 8 mps 758 mmHg 83%
    09:00 +10°C° 0 mm 8 mps 758 mmHg 79%
    10:00 +10°C° 0 mm 8 mps 758 mmHg 75%
    11:00 +10°C° 0 mm 8 mps 758 mmHg 71%
    12:00 +11°C° 0 mm 8 mps 758 mmHg 67%
    13:00 +11°C° 0 mm 8 mps 758 mmHg 66%
    14:00 +11°C° 0 mm 8 mps 758 mmHg 64%
    15:00 +11°C° 0 mm 7 mps 759 mmHg 63%
    16:00 +11°C° 0 mm 7 mps 759 mmHg 65%
    17:00 +10°C° 0 mm 7 mps 759 mmHg 66%
    18:00 +10°C° 0 mm 6 mps 759 mmHg 67%
    19:00 +8°C° 0 mm 5 mps 759 mmHg 74%
    20:00 +6°C° 0 mm 4 mps 759 mmHg 80%
    21:00 +4°C° 0 mm 3 mps 759 mmHg 86%
    22:00 +4°C° 0 mm 3 mps 759 mmHg 87%
    23:00 +3°C° 0 mm 3 mps 759 mmHg 88%

    4 June, Thursday

    Time Temperature Precipitation Wind Pressure Humidity
    00:00 +3°C° 0 mm 2 mps 759 mmHg 89%
    01:00 +3°C° 0 mm 2 mps 758 mmHg 89%
    02:00 +3°C° 0 mm 2 mps 758 mmHg 90%
    03:00 +3°C° 0 mm 2 mps 757 mmHg 90%
    04:00 +5°C° 0 mm 1 mps 757 mmHg 86%
    05:00 +6°C° 0 mm 1 mps 757 mmHg 82%
    06:00 +7°C° 0 mm 1 mps 756 mmHg 78%
    07:00 +8°C° 0 mm 1 mps 756 mmHg 73%
    08:00 +9°C° 0 mm 1 mps 756 mmHg 69%
    09:00 +10°C° 0 mm 2 mps 755 mmHg 64%
    10:00 +12°C° 0 mm 2 mps 755 mmHg 62%
    11:00 +12°C° 0 mm 3 mps 754 mmHg 61%
    12:00 +13°C° 0 mm 3 mps 754 mmHg 59%
    13:00 +13°C° 0 mm 3 mps 753 mmHg 60%
    14:00 +13°C° 0 mm 3 mps 753 mmHg 62%
    15:00 +14°C° 0 mm 3 mps 752 mmHg 63%
    16:00 +14°C° 0 mm 3 mps 751 mmHg 65%
    17:00 +14°C° 0 mm 3 mps 751 mmHg 68%
    18:00 +16°C° 0 mm 3 mps 751 mmHg 70%
    19:00 +14°C° 0 mm 3 mps 750 mmHg 73%
    20:00 +14°C° 0 mm 2 mps 750 mmHg 76%
    21:00 +12°C° 0 mm 2 mps 750 mmHg 79%
    22:00 +12°C° 0 mm 2 mps 750 mmHg 82%
    23:00 +10°C° 0 mm 2 mps 750 mmHg 84%
    Show more